{"data":{"norad_id":62698,"intl_designator":"2025-009CT","name":"ICEYE-X42","alt_names":[],"object_type":"PAYLOAD","status":"ACTIVE","operator":null,"country":"UAE","launch_date":"2025-01-14","launch_site_code":"AFWTR","launch_vehicle":null,"mission":null,"orbit_class":"UNKNOWN","rcs_meters":null,"size_class":null,"mass_kg":null,"dimensions":null,"purposes":[],"wikipedia_slug":null,"has_3d_model":false,"image_url":null,"decayed_at":null,"tle_current":{"epoch":"2026-05-25T04:49:33.742272Z","epoch_age_seconds":64639,"freshness":"FRESH","line1":"1 62698U 25009CT  26145.20108498  .00001747  00000+0  17844-3 0  9992","line2":"2 62698  97.7398 223.9287 0001764 100.1866 259.9552 14.91868133 73864","mean_motion":14.91868133,"eccentricity":0.0001764,"inclination_deg":97.7398,"raan_deg":223.9287,"arg_perigee_deg":100.1866,"mean_anomaly_deg":259.9552,"bstar":0.00017844,"rev_number":7386,"period_min":96.523276296833,"perigee_km":590.88122299465,"apogee_km":593.34032640956,"semimajor_km":6970.2477747021,"source":"CELESTRAK","updated_at":"2026-05-25T13:38:03.201180Z"}}}